Location: Albany
(35.0000°S, 118.0000°E)
Time: 04:28:01
(UTC-05:00)

ERS-1 Rocket - Visible Passes

Search period start: 23 February 2017 00:00
Search period end: 05 March 2017 00:00
Orbit: 754 x 757 km, 98.6° (Epoch: 22 February)

Date Brightness Start Highest point End Pass type
(mag) Time Alt. Az. Time Alt. Az. Time Alt. Az.
23 Feb 4.6 07:56:32 10° SSE 07:58:28 21° SE 07:58:28 21° SE visible
23 Feb 5.3 09:35:50 10° SSW 09:38:28 20° SW 09:38:28 20° SW visible
24 Feb 4.5 08:55:34 10° S 08:58:20 31° SSW 08:58:20 31° SSW visible
25 Feb 4.5 08:16:06 10° SSE 08:18:12 25° SSE 08:18:12 25° SSE visible
25 Feb 5.7 09:56:39 10° SSW 09:58:13 14° SW 09:58:13 14° SW visible
26 Feb 5.1 07:37:30 10° SE 07:38:06 12° SE 07:38:06 12° SE visible
26 Feb 5.0 09:15:42 10° S 09:18:05 24° SSW 09:18:05 24° SSW visible
27 Feb 4.7 08:35:52 10° SSE 08:37:58 25° SSE 08:37:58 25° SSE visible
28 Feb 5.0 07:56:46 10° SSE 07:57:50 16° SE 07:57:50 16° SE visible
28 Feb 5.5 09:36:04 10° SSW 09:37:49 17° SW 09:37:49 17° SW visible
01 Mar 5.0 08:55:48 10° S 08:57:42 23° S 08:57:42 23° S visible
02 Mar 5.0 08:16:20 10° SSE 08:17:34 18° SSE 08:17:34 18° SSE visible
02 Mar 5.9 09:56:52 10° SSW 09:57:34 12° SW 09:57:34 12° SW visible
03 Mar 5.4 09:15:56 10° S 09:17:26 18° SSW 09:17:26 18° SSW visible
04 Mar 5.2 08:36:06 10° SSE 08:37:19 18° SSE 08:37:19 18° SSE visible
